Weather History for Palacios, TX

Change the Weather History Date:

Friday, November 2, 2012

  Actual Average Record
Temperature  
Mean Temperature 73 °F -  
Max Temperature 84 °F 75 °F 86 °F (1950)
Min Temperature 62 °F 55 °F 33 °F (1966)
Cooling Degree Days 8    
Growing Degree Days 23 (Base 50)    
Moisture  
Dew Point 65 °F    
Average Humidity 84    
Maximum Humidity 94    
Minimum Humidity 55    
Precipitation  
Precipitation 0.01 in - - ()
Sea Level Pressure  
Sea Level Pressure 30.01 in    
Wind  
Wind Speed 4 mph (SSE)    
Max Wind Speed 15 mph    
Max Gust Speed -    
Visibility 6 miles    
Events      
Averages and records for this station are not official NWS values.
T = Trace of Precipitation, MM = Missing Value Source: NWS Daily Summary

Daily Weather History Graph

Daily Weather History Graph

Search for Another Location

Airport:

Trip Planner

Search our weather history database for the weather conditions in past years. The results will help you decide how hot, cold, wet, or windy it might be!

Date:

Astronomy

Nov. 02, 2012 Rise Set
Actual Time 7:38 AM CDT 6:38 PM CDT
Civil Twilight 7:13 AM CDT 7:02 PM CDT
Nautical Twilight 6:45 AM CDT 7:30 PM CDT
Astronomical Twilight 6:18 AM CDT 7:58 PM CDT
Moon 9:35 PM CDT (11/2) 10:49 AM CDT (11/2)
Length of Visible Light 11h 49m
Length of Day
11h 00m
Waning Gibbous, 87% of the Moon is Illuminated
Nov 2
Waning Gibbous
Nov 6
Last Quarter
Nov 13
New
Nov 20
First Quarter
Nov 28
Full

Hourly Weather History & Observations

Time (CDT) Temp. Heat Index Dew Point Humidity Pressure Visibility Wind Dir Wind Speed Gust Speed Precip Events Conditions
12:53 AM 72.0 °F - 69.1 °F 91% 30.01 in 10.0 mi SSE 6.9 mph - N/A   Clear
1:53 AM 69.1 °F - 66.0 °F 90% 30.01 in 7.0 mi SSE 5.8 mph - N/A   Clear
2:53 AM 70.0 °F - 66.9 °F 90% 30.00 in 9.0 mi SSE 5.8 mph - N/A   Clear
3:53 AM 69.1 °F - 66.0 °F 90% 30.00 in 7.0 mi SE 3.5 mph - N/A   Clear
4:27 AM 66.2 °F - 64.4 °F 94% 30.00 in 1.5 mi Calm Calm - N/A   Clear
4:36 AM 66.2 °F - 62.6 °F 88% 30.00 in 0.8 mi Calm Calm - N/A   Clear
4:41 AM 66.2 °F - 62.6 °F 88% 30.00 in 2.0 mi Calm Calm - N/A   Clear
4:47 AM 66.2 °F - 62.6 °F 88% 30.00 in 0.8 mi Calm Calm - N/A   Clear
4:48 AM 66.2 °F - 62.6 °F 88% 30.00 in 0.8 mi Calm Calm - N/A   Clear
5:05 AM 66.2 °F - 64.4 °F 94% 30.01 in 1.2 mi Calm Calm - N/A   Clear
5:20 AM 66.2 °F - 64.4 °F 94% 30.01 in 3.0 mi Calm Calm - N/A   Clear
5:26 AM 66.2 °F - 64.4 °F 94% 30.01 in 1.5 mi Calm Calm - N/A   Clear
5:59 AM 64.4 °F - 62.6 °F 94% 30.01 in 0.8 mi Calm Calm - N/A   Clear
6:11 AM 64.4 °F - 62.6 °F 94% 30.01 in 2.5 mi Calm Calm - N/A   Clear
6:31 AM 64.4 °F - 60.8 °F 88% 30.01 in 1.8 mi Calm Calm - N/A   Clear
6:46 AM 62.6 °F - 60.8 °F 94% 30.01 in 0.8 mi Calm Calm - N/A   Clear
6:51 AM 64.4 °F - 60.8 °F 88% 30.01 in 2.0 mi Calm Calm - 0.01 in   Clear
6:53 AM 64.0 °F - 61.0 °F 90% 30.01 in 4.0 mi Calm Calm - 0.01 in   Clear
7:12 AM 64.4 °F - 62.6 °F 94% 30.02 in 2.0 mi ESE 3.5 mph - N/A   Partly Cloudy
7:16 AM 64.4 °F - 62.6 °F 94% 30.02 in 1.0 mi ESE 3.5 mph - N/A   Mist
7:30 AM 66.2 °F - 62.6 °F 88% 30.02 in 1.8 mi East 3.5 mph - N/A   Partly Cloudy
7:35 AM 66.2 °F - 62.6 °F 88% 30.02 in 3.0 mi ESE 3.5 mph - N/A   Partly Cloudy
7:50 AM 66.2 °F - 62.6 °F 88% 30.02 in 1.8 mi Calm Calm - N/A   Clear
7:53 AM 66.0 °F - 63.0 °F 90% 30.02 in 1.5 mi Calm Calm - N/A   Clear
8:25 AM 68.0 °F - 66.2 °F 94% 30.03 in 3.0 mi East 3.5 mph - N/A   Clear
8:53 AM 73.0 °F - 69.1 °F 87% 30.03 in 9.0 mi Calm Calm - N/A   Clear
9:53 AM 78.1 °F - 70.0 °F 76% 30.04 in 10.0 mi South 6.9 mph - N/A   Clear
10:53 AM 81.0 °F 83.8 °F 68.0 °F 65% 30.05 in 10.0 mi South 10.4 mph - N/A   Clear
11:53 AM 84.0 °F 87.0 °F 68.0 °F 58% 30.04 in 10.0 mi South 9.2 mph - N/A   Clear
12:53 PM 84.9 °F 88.2 °F 68.0 °F 57% 30.03 in 10.0 mi South 10.4 mph - N/A   Clear
1:53 PM 84.0 °F 86.3 °F 66.0 °F 55% 30.01 in 10.0 mi South 15.0 mph - N/A   Clear
2:53 PM 82.9 °F 85.0 °F 66.0 °F 56% 29.99 in 10.0 mi South 13.8 mph - N/A   Clear
3:53 PM 82.9 °F 85.4 °F 66.9 °F 58% 29.97 in 10.0 mi South 9.2 mph - N/A   Clear
5:53 PM 80.1 °F 82.9 °F 69.1 °F 69% 29.98 in 10.0 mi SSE 12.7 mph - N/A   Clear
6:53 PM 77.0 °F - 68.0 °F 74% 29.97 in 10.0 mi SSE 9.2 mph - N/A   Clear
7:53 PM 75.0 °F - 69.1 °F 82% 29.99 in 10.0 mi SE 6.9 mph - N/A   Clear
8:53 PM 75.0 °F - 70.0 °F 84% 29.99 in 10.0 mi SE 9.2 mph - N/A   Clear
9:53 PM 73.9 °F - 69.1 °F 85% 30.01 in 10.0 mi SSE 6.9 mph - N/A   Clear
10:53 PM 73.9 °F - 69.1 °F 85% 30.01 in 10.0 mi SSE 8.1 mph - N/A   Clear
11:53 PM 73.9 °F - 69.1 °F 85% 30.01 in 10.0 mi SSE 8.1 mph - N/A   Clear